| time (UTC) | temp F | wind direction | speed knots | gust knots | rain 1hr in | rain 24hr in | rain mn in | humidity % | barometer mb |
| 20260509231554 | 68 | 238 | 4.3 | 8.7 | 0.00 | 0.00 | 0.00 | 73 | 1012.6 |
| 20260509230050 | 68 | 261 | 4.3 | 10.4 | 0.00 | 0.00 | 0.00 | 73 | 1012.5 |
| 20260509224555 | 68 | 225 | 5.2 | 9.6 | 0.00 | 0.00 | 0.00 | 74 | 1012.8 |
| 20260509223101 | 69 | 228 | 2.6 | 9.6 | 0.00 | 0.00 | 0.00 | 72 | 1012.8 |
| 20260509221552 | 70 | 182 | 4.3 | 10.4 | 0.00 | 0.00 | 0.00 | 71 | 1012.9 |
| 20260509220053 | 68 | 250 | 3.5 | 8.7 | 0.00 | 0.00 | 0.00 | 73 | 1013.0 |
| 20260509214602 | 68 | 240 | 3.5 | 12.2 | 0.00 | 0.00 | 0.00 | 73 | 1013.2 |
| 20260509213055 | 69 | 234 | 4.3 | 9.6 | 0.00 | 0.00 | 0.00 | 73 | 1013.2 |
| 20260509211554 | 69 | 252 | 5.2 | 11.3 | 0.00 | 0.00 | 0.00 | 73 | 1013.4 |
| 20260509210106 | 68 | 230 | 5.2 | 11.3 | 0.00 | 0.00 | 0.00 | 75 | 1013.6 |
| 20260509204558 | 68 | 245 | 4.3 | 10.4 | 0.00 | 0.00 | 0.00 | 74 | 1013.6 |
| 20260509203059 | 69 | 234 | 4.3 | 9.6 | 0.00 | 0.00 | 0.00 | 74 | 1013.8 |
| 20260509201608 | 69 | 249 | 5.2 | 10.4 | 0.00 | 0.00 | 0.00 | 73 | 1013.9 |
| 20260509200107 | 68 | 246 | 4.3 | 10.4 | 0.00 | 0.00 | 0.00 | 74 | 1013.9 |
| 20260509194554 | 68 | 360 | 4.3 | 10.4 | 0.00 | 0.00 | 0.00 | 75 | 1013.8 |
| 20260509193057 | 68 | 236 | 4.3 | 11.3 | 0.00 | 0.00 | 0.00 | 74 | 1013.8 |
| 20260509191553 | 69 | 198 | 5.2 | 11.3 | 0.00 | 0.00 | 0.00 | 75 | 1013.8 |
| 20260509190053 | 69 | 222 | 4.3 | 8.7 | 0.00 | 0.00 | 0.00 | 74 | 1013.9 |
| 20260509184602 | 69 | 217 | 4.3 | 8.7 | 0.00 | 0.00 | 0.00 | 74 | 1013.9 |
| 20260509183057 | 69 | 233 | 3.5 | 7.8 | 0.00 | 0.00 | 0.00 | 74 | 1014.0 |
| 20260509181609 | 69 | 211 | 4.3 | 9.6 | 0.00 | 0.00 | 0.00 | 75 | 1013.9 |
| 20260509180051 | 69 | 232 | 3.5 | 7.8 | 0.00 | 0.00 | 0.00 | 74 | 1013.9 |
| 20260509174550 | 69 | 233 | 2.6 | 7.8 | 0.00 | 0.00 | 0.00 | 75 | 1014.1 |
| 20260509173102 | 69 | 234 | 2.6 | 7.8 | 0.00 | 0.00 | 0.00 | 73 | 1014.1 |
| 20260509171556 | 70 | 188 | 2.6 | 7.8 | 0.00 | 0.00 | 0.00 | 74 | 1014.2 |
| 20260509170048 | 68 | 227 | 1.7 | 7.0 | 0.00 | 0.00 | 0.00 | 75 | 1014.0 |
| 20260509164551 | 66 | 253 | 2.6 | 6.1 | 0.00 | 0.00 | 0.00 | 78 | 1014.1 |
| 20260509163050 | 65 | 182 | 0.9 | 4.3 | 0.00 | 0.00 | 0.00 | 80 | 1014.2 |
| 20260509161549 | 63 | 254 | 1.7 | 5.2 | 0.00 | 0.00 | 0.00 | 81 | 1014.3 |
| 20260509160049 | 63 | 217 | 0.9 | 3.5 | 0.00 | 0.00 | 0.00 | 82 | 1014.2 |
| 20260509154552 | 63 | 211 | 1.7 | 5.2 | 0.00 | 0.00 | 0.00 | 83 | 1014.2 |
| 20260509153054 | 63 | 163 | 2.6 | 4.3 | 0.00 | 0.00 | 0.00 | 82 | 1014.2 |
| 20260509151604 | 63 | 191 | 0.9 | 3.5 | 0.00 | 0.00 | 0.00 | 83 | 1014.2 |
| 20260509150050 | 62 | 167 | 0.9 | 5.2 | 0.00 | 0.00 | 0.00 | 84 | 1014.2 |
| 20260509144607 | 62 | 167 | 0.9 | 3.5 | 0.00 | 0.00 | 0.00 | 84 | 1014.1 |
| 20260509143119 | 62 | 0 | 0.0 | 3.5 | 0.00 | 0.00 | 0.00 | 85 | 1013.9 |
| 20260509141554 | 62 | 166 | 1.7 | 4.3 | 0.00 | 0.00 | 0.00 | 85 | 1014.1 |
| 20260509134609 | 61 | 153 | 0.9 | 5.2 | 0.00 | 0.00 | 0.00 | 85 | 1014.0 |
| 20260509133051 | 61 | 151 | 1.7 | 6.1 | 0.00 | 0.00 | 0.00 | 85 | 1013.8 |
| 20260509131551 | 61 | 156 | 1.7 | 5.2 | 0.00 | 0.00 | 0.00 | 85 | 1013.8 |
| 20260509130057 | 61 | 155 | 1.7 | 4.3 | 0.00 | 0.00 | 0.00 | 85 | 1013.8 |
| 20260509124552 | 61 | 163 | 2.6 | 6.1 | 0.00 | 0.00 | 0.00 | 85 | 1013.8 |
| 20260509123109 | 61 | 159 | 2.6 | 6.1 | 0.00 | 0.00 | 0.00 | 86 | 1013.7 |
| 20260509121610 | 61 | 169 | 0.9 | 3.5 | 0.00 | 0.00 | 0.00 | 86 | 1013.7 |
| 20260509120112 | 61 | 170 | 0.9 | 3.5 | 0.00 | 0.00 | 0.00 | 86 | 1013.7 |
| 20260509114605 | 61 | 170 | 2.6 | 4.3 | 0.00 | 0.00 | 0.00 | 85 | 1013.8 |
| 20260509113106 | 61 | 0 | 0.9 | 5.2 | 0.00 | 0.00 | 0.00 | 86 | 1013.8 |
| 20260509111608 | 61 | 155 | 1.7 | 5.2 | 0.00 | 0.00 | 0.00 | 85 | 1013.7 |
| 20260509104553 | 61 | 136 | 0.9 | 2.6 | 0.00 | 0.00 | 0.00 | 85 | 1013.7 |
| 20260509103102 | 61 | 135 | 0.9 | 1.7 | 0.00 | 0.00 | 0.00 | 85 | 1013.9 |
| 20260509101618 | 61 | 135 | 0.9 | 2.6 | 0.00 | 0.00 | 0.00 | 86 | 1014.0 |
| 20260509100051 | 61 | 134 | 0.0 | 4.3 | 0.00 | 0.00 | 0.00 | 85 | 1014.0 |
| 20260509094548 | 61 | 146 | 2.6 | 6.1 | 0.00 | 0.00 | 0.00 | 85 | 1014.1 |
| 20260509093104 | 61 | 154 | 0.9 | 4.3 | 0.00 | 0.00 | 0.00 | 85 | 1014.1 |
| 20260509091553 | 61 | 155 | 1.7 | 5.2 | 0.00 | 0.00 | 0.00 | 85 | 1014.1 |
| 20260509084552 | 61 | 0 | 0.0 | 1.7 | 0.00 | 0.00 | 0.00 | 85 | 1014.3 |
| 20260509083052 | 61 | 173 | 1.7 | 4.3 | 0.00 | 0.00 | 0.00 | 85 | 1014.5 |
| 20260509081606 | 61 | 174 | 0.0 | 2.6 | 0.00 | 0.00 | 0.00 | 85 | 1014.5 |
| 20260509080056 | 62 | 0 | 0.0 | 2.6 | 0.00 | 0.00 | 0.00 | 85 | 1014.6 |
| 20260509074558 | 62 | 174 | 0.9 | 4.3 | 0.00 | 0.00 | 0.00 | 85 | 1014.9 |
| 20260509073056 | 61 | 175 | 1.7 | 4.3 | 0.00 | 0.00 | 0.00 | 85 | 1014.9 |
| 20260509071558 | 61 | 163 | 3.5 | 7.8 | 0.00 | 0.00 | 0.00 | 85 | 1015.0 |
| 20260509070052 | 61 | 109 | 2.6 | 5.2 | 0.00 | 0.00 | 0.00 | 85 | 1015.1 |
| 20260509064605 | 61 | 128 | 0.9 | 4.3 | 0.00 | 0.00 | 0.00 | 84 | 1015.2 |
| 20260509063048 | 62 | 0 | 0.9 | 3.5 | 0.00 | 0.00 | 0.00 | 84 | 1015.1 |
| 20260509061555 | 62 | 250 | 0.9 | 3.5 | 0.00 | 0.00 | 0.00 | 84 | 1015.2 |
| 20260509060054 | 62 | 253 | 0.0 | 2.6 | 0.00 | 0.00 | 0.00 | 84 | 1015.3 |
| 20260509054600 | 62 | 254 | 0.9 | 3.5 | 0.00 | 0.00 | 0.00 | 84 | 1015.3 |
| 20260509053058 | 62 | 0 | 0.0 | 1.7 | 0.00 | 0.00 | 0.00 | 84 | 1015.4 |
| 20260509051558 | 62 | 0 | 0.0 | 1.7 | 0.00 | 0.00 | 0.00 | 84 | 1015.3 |
| 20260509050052 | 62 | 0 | 0.0 | 1.7 | 0.00 | 0.00 | 0.00 | 84 | 1015.4 |
| 20260509044557 | 62 | 257 | 0.0 | 3.5 | 0.00 | 0.00 | 0.00 | 84 | 1015.4 |
| 20260509043050 | 62 | 0 | 0.0 | 1.7 | 0.00 | 0.00 | 0.00 | 84 | 1015.3 |
| 20260509041617 | 62 | 261 | 0.9 | 2.6 | 0.00 | 0.00 | 0.00 | 84 | 1015.2 |
| 20260509040055 | 62 | 0 | 0.9 | 2.6 | 0.00 | 0.00 | 0.00 | 84 | 1015.1 |
| 20260509034551 | 62 | 0 | 0.0 | 3.5 | 0.00 | 0.00 | 0.00 | 83 | 1015.1 |
| 20260509033053 | 62 | 0 | 0.9 | 3.5 | 0.00 | 0.00 | 0.00 | 83 | 1014.9 |
| 20260509031554 | 62 | 246 | 0.9 | 4.3 | 0.00 | 0.00 | 0.00 | 83 | 1014.7 |
| 20260509030053 | 62 | 216 | 1.7 | 7.0 | 0.00 | 0.00 | 0.00 | 83 | 1014.8 |
| 20260509024551 | 62 | 249 | 2.6 | 7.0 | 0.00 | 0.00 | 0.00 | 83 | 1014.6 |
| 20260509023106 | 62 | 0 | 0.9 | 7.8 | 0.00 | 0.00 | 0.00 | 83 | 1014.3 |
| 20260509021548 | 63 | 245 | 1.7 | 6.1 | 0.00 | 0.00 | 0.00 | 82 | 1014.4 |
| 20260509020055 | 63 | 250 | 2.6 | 6.1 | 0.00 | 0.00 | 0.00 | 82 | 1014.2 |
| 20260509014550 | 63 | 295 | 1.7 | 8.7 | 0.00 | 0.00 | 0.00 | 82 | 1014.1 |
| 20260509013054 | 64 | 298 | 2.6 | 7.8 | 0.00 | 0.00 | 0.00 | 81 | 1014.2 |
| 20260509011556 | 64 | 262 | 2.6 | 7.0 | 0.00 | 0.00 | 0.00 | 81 | 1014.2 |
| 20260509010053 | 65 | 296 | 4.3 | 9.6 | 0.00 | 0.00 | 0.00 | 79 | 1014.1 |
| 20260509004546 | 67 | 255 | 4.3 | 8.7 | 0.00 | 0.00 | 0.00 | 77 | 1014.2 |
| 20260509003051 | 67 | 253 | 4.3 | 9.6 | 0.00 | 0.00 | 0.00 | 76 | 1014.1 |
| 20260509001551 | 68 | 241 | 3.5 | 9.6 | 0.00 | 0.00 | 0.00 | 75 | 1014.0 |
| 20260509000052 | 68 | 236 | 3.5 | 9.6 | 0.00 | 0.00 | 0.00 | 76 | 1014.1 |
| 20260508234552 | 67 | 360 | 4.3 | 10.4 | 0.00 | 0.00 | 0.00 | 76 | 1014.2 |
| 20260508233048 | 68 | 292 | 4.3 | 12.2 | 0.00 | 0.00 | 0.00 | 75 | 1014.3 |